(127983) = 1999 LR16 = 2002 CJ45 = 2003 HW42

Discovered at Reedy Creek on 2003-04-29 by J. Broughton.

Orbit

Orbit type: Main Belt

Note: WebGL enabled browser required.

epoch2023-09-13.0
epoch JD2460200.5
perihelion date2020-03-07.85526
perihelion JD2458916.35526
argument of perihelion (°)356.56356
ascending node (°)321.39453
inclination (°)5.17571
eccentricity0.2970092
perihelion distance (AU)1.7863170
Tisserand w.r.t. Jupiter3.4
ΔV w.r.t. Earth (km/sec)8.6
semimajor axis (AU)2.5410246
mean anomaly (°)312.46725
mean daily motion (°/day)0.24332710
aphelion distance (AU)3.296
period (years)4.05
P-vector [x]0.74280772
P-vector [y]-0.61208771
P-vector [z]-0.27126616
Q-vector [x]0.66713451
Q-vector [y]0.64263567
Q-vector [z]0.37676378
absolute magnitude15.81
phase slope0.15
uncertainty0
referenceMPEC 2023-O115
observations used803
oppositions18
arc length (days)8750
first opposition used1999
last opposition used2023
residual rms (arc-secs)0.79
perturbers coarse indicatorM-v
perturbers precise indicator003Ek
first observation date used1999-06-09.0
last observation date used2023-05-24.0
computer nameMPCLINUX
JD of orbit computation2456731.500934
perihelion JD uncertainty (days)7.5865E-05
argument of perihelion uncertainty (°)6.3113E-05
ascending node uncertainty (°)6.1552E-05
inclination uncertainty (°)4.3487E-06
eccentricity uncertainty 3.9670E-08
perihelion distance uncertainty (AU)9.7262E-08
Minimum Orbit Intersection Distances (in AU)
for orbit epoch: 2460200.5, reference: E2023-OB5
Mercury1.36385
Venus1.0594
Earth0.77255
Mars0.39702
Jupiter2.01693
Saturn5.87464
Uranus15.2018
Neptune27.027

Observations

818 total observations over interval: 1999 06 09.26501 – 2023 05 24.317229
These data are available for download (format description).

Date (UT) J2000 RA J2000 Dec Magn Location Ref
1999 06 09.26501 15 25 19.16 -28 10 21.4 18.1   704 – Lincoln Laboratory ETS, New Mexico MPS 5269
1999 06 09.28377 15 25 18.14 -28 10 16.6 19.3   704 – Lincoln Laboratory ETS, New Mexico MPS 5269
1999 06 09.29312 15 25 17.62 -28 10 12.1 19.2   704 – Lincoln Laboratory ETS, New Mexico MPS 5269
1999 06 09.30246 15 25 17.24 -28 10 08.7 19.3   704 – Lincoln Laboratory ETS, New Mexico MPS 5269
1999 06 15.17498 15 20 39.21 -27 39 28.5 18.6   704 – Lincoln Laboratory ETS, New Mexico MPS 5269
1999 06 15.18714 15 20 38.67 -27 39 25.8 18.9   704 – Lincoln Laboratory ETS, New Mexico MPS 5269
1999 06 15.19929 15 20 38.11 -27 39 20.7 19.0   704 – Lincoln Laboratory ETS, New Mexico MPS 5269
1999 06 15.21148 15 20 37.56 -27 39 17.4 18.8   704 – Lincoln Laboratory ETS, New Mexico MPS 5269
1999 06 15.22362 15 20 37.03 -27 39 12.9 18.8   704 – Lincoln Laboratory ETS, New Mexico MPS 5269
2002 02 08.42497 10 03 43.71 +11 17 11.6 21.8 V 691 – Steward Observatory, Kitt Peak-Spacewatch MPS 50180
2002 02 08.44673 10 03 42.52 +11 17 16.0 21.7 V 691 – Steward Observatory, Kitt Peak-Spacewatch MPS 50180
2002 02 08.46853 10 03 41.28 +11 17 20.8 21.3 V 691 – Steward Observatory, Kitt Peak-Spacewatch MPS 50180
2002 02 09.27788 10 02 57.57 +11 20 23.5 21.6 V 691 – Steward Observatory, Kitt Peak-Spacewatch MPS 50180
2002 02 09.29905 10 02 56.40 +11 20 28.0 21.6 V 691 – Steward Observatory, Kitt Peak-Spacewatch MPS 50180
2002 02 09.32023 10 02 55.20 +11 20 32.8 21.1 V 691 – Steward Observatory, Kitt Peak-Spacewatch MPS 50180
2002 03 13.13918 09 35 11.64 +13 10 53.1 22.0 V 291 – LPL/Spacewatch II MPS 81580
2002 03 13.16017 09 35 10.76 +13 10 56.3 22.0 V 291 – LPL/Spacewatch II MPS 81580
2002 03 13.18103 09 35 09.84 +13 10 59.8 21.6 V 291 – LPL/Spacewatch II MPS 81580
2003 04 29.57953 15 14 28.19 -27 15 48.4 18.4 V 428 – Reedy Creek MPS 78532
2003 04 29.60049 15 14 26.97 -27 15 46.8 18.5 V 428 – Reedy Creek MPS 78532
2003 04 30.62222 15 13 28.15 -27 14 18.9 18.7 V 428 – Reedy Creek MPS 78532
2003 05 07.57509 15 06 22.78 -26 59 19.5   428 – Reedy Creek MPS 80261
2003 05 08.26769 15 05 38.81 -26 57 27.0 18.5   704 – Lincoln Laboratory ETS, New Mexico MPS 80261
2003 05 08.28015 15 05 38.05 -26 57 26.1 18.6   704 – Lincoln Laboratory ETS, New Mexico MPS 80261
2003 05 08.29217 15 05 37.17 -26 57 23.5 18.8   704 – Lincoln Laboratory ETS, New Mexico MPS 80261
2003 05 08.30427 15 05 36.38 -26 57 20.7 18.4   704 – Lincoln Laboratory ETS, New Mexico MPS 80261
2003 05 08.31977 15 05 35.43 -26 57 18.6 18.6   704 – Lincoln Laboratory ETS, New Mexico MPS 80261
2003 05 10.64472 15 03 05.28 -26 49 59.7 18.3 V 428 – Reedy Creek MPS 80261
2003 05 19.56188 14 53 28.86 -26 14 47.7 18.7 V 428 – Reedy Creek MPS 80261
2003 05 19.59251 14 53 26.73 -26 14 40.0 18.3 V 428 – Reedy Creek MPS 80261
2004 12 15.11100 04 50 28.43 +29 44 59.0 20.3 V 691 – Steward Observatory, Kitt Peak-Spacewatch MPS 122694
2004 12 15.13650 04 50 26.74 +29 44 53.0 19.6 V 691 – Steward Observatory, Kitt Peak-Spacewatch MPS 122694
2004 12 15.16194 04 50 25.02 +29 44 48.3 19.6 V 691 – Steward Observatory, Kitt Peak-Spacewatch MPS 122694
2004 12 17.23646 04 48 08.82 +29 37 47.1 19.4   704 – Lincoln Laboratory ETS, New Mexico MPS 122694
2004 12 17.27823 04 48 05.98 +29 37 39.7 20.3   704 – Lincoln Laboratory ETS, New Mexico MPS 122694
2004 12 17.29178 04 48 05.03 +29 37 37.3 19.7   704 – Lincoln Laboratory ETS, New Mexico MPS 122694
2004 12 19.10952 04 46 10.00 +29 31 12.6 20.0 V 691 – Steward Observatory, Kitt Peak-Spacewatch MPS 122694
2004 12 19.13524 04 46 08.34 +29 31 07.5 19.9 V 691 – Steward Observatory, Kitt Peak-Spacewatch MPS 122694
2004 12 19.16122 04 46 06.69 +29 31 02.0 19.9 V 691 – Steward Observatory, Kitt Peak-Spacewatch MPS 122694
2004 12 20.12014 04 45 07.44 +29 27 35.2 19.7 V 691 – Steward Observatory, Kitt Peak-Spacewatch MPS 122694
2004 12 20.14563 04 45 05.84 +29 27 29.8 19.8 V 691 – Steward Observatory, Kitt Peak-Spacewatch MPS 122694
2004 12 20.17125 04 45 04.23 +29 27 24.6 19.9 V 691 – Steward Observatory, Kitt Peak-Spacewatch MPS 122694
2006 01 07.40565 10 12 38.19 +11 25 04.5 21.2 V G96 – Mt. Lemmon Survey MPS 158939
2006 01 07.41256 10 12 38.08 +11 25 05.0 21.9 V G96 – Mt. Lemmon Survey MPS 158939
2006 01 07.41943 10 12 37.87 +11 25 06.0 21.0 V G96 – Mt. Lemmon Survey MPS 158939
2006 01 07.42632 10 12 37.62 +11 25 06.6 21.6 V G96 – Mt. Lemmon Survey MPS 158939
2006 01 26.36064 10 00 44.17 +12 10 34.6 21.0 V G96 – Mt. Lemmon Survey MPS 160398
2006 01 26.36794 10 00 43.81 +12 10 36.1 21.1 V G96 – Mt. Lemmon Survey MPS 160398
2006 01 26.37528 10 00 43.41 +12 10 37.6 21.1 V G96 – Mt. Lemmon Survey MPS 160398
2006 01 26.38257 10 00 43.12 +12 10 39.3 21.1 V G96 – Mt. Lemmon Survey MPS 160398
2006 02 20.28317 09 38 13.74 +13 39 12.4 21.0 V G96 – Mt. Lemmon Survey MPS 163775
2006 02 20.29298 09 38 13.20 +13 39 14.4 20.6 V G96 – Mt. Lemmon Survey MPS 163775
2006 02 20.29990 09 38 12.80 +13 39 16.0 20.4 V G96 – Mt. Lemmon Survey MPS 163775
2006 02 20.31788 09 38 11.76 +13 39 20.0 21.0 V G96 – Mt. Lemmon Survey MPS 163775
2006 03 04.11665 09 27 54.18 +14 17 10.2   691 – Steward Observatory, Kitt Peak-Spacewatch MPS 166041
2006 03 04.13286 09 27 53.39 +14 17 13.2   691 – Steward Observatory, Kitt Peak-Spacewatch MPS 166041
2006 03 04.14907 09 27 52.60 +14 17 15.1   691 – Steward Observatory, Kitt Peak-Spacewatch MPS 166041
2007 03 31.45288 14 58 27.94 -24 46 45.7 20.1 R 644 – Palomar Mountain/NEAT MPS 206097
2007 03 31.47328 14 58 27.43 -24 46 47.7 19.6 R 644 – Palomar Mountain/NEAT MPS 206097
2007 03 31.49481 14 58 26.91 -24 46 50.9 20.0 R 644 – Palomar Mountain/NEAT MPS 206097
2007 04 01.38453 14 58 05.64 -24 48 19.4 20.1 R 644 – Palomar Mountain/NEAT MPS 206097
2007 04 01.40485 14 58 05.08 -24 48 21.0 19.8 R 644 – Palomar Mountain/NEAT MPS 206097
2007 04 01.42519 14 58 04.53 -24 48 23.1 19.8 R 644 – Palomar Mountain/NEAT MPS 206097
2007 04 11.76220 14 52 12.07 -24 56 39.1 19.3 V E12 – Siding Spring Survey MPS 206717
2007 04 11.77322 14 52 11.42 -24 56 39.9 19.4 V E12 – Siding Spring Survey MPS 206717
2007 04 11.78423 14 52 11.02 -24 56 39.6 19.1 V E12 – Siding Spring Survey MPS 206717
2007 04 11.79530 14 52 10.59 -24 56 40.1 19.4 V E12 – Siding Spring Survey MPS 206717
2007 04 16.64296 14 48 24.91 -24 54 28.4 19.5 V E12 – Siding Spring Survey MPS 207883
2007 04 16.65286 14 48 24.44 -24 54 27.6 19.5 V E12 – Siding Spring Survey MPS 207883
2007 04 16.66295 14 48 23.90 -24 54 27.3 18.8 V E12 – Siding Spring Survey MPS 207883
2007 04 16.67307 14 48 23.29 -24 54 26.2 19.0 V E12 – Siding Spring Survey MPS 207883
2007 05 08.27511 14 26 48.89 -23 55 21.9 18.0 R 699 – Lowell Observatory-LONEOS MPS 210014
2007 05 08.29335 14 26 47.59 -23 55 15.0   699 – Lowell Observatory-LONEOS MPS 210014
2007 05 08.31161 14 26 46.32 -23 55 10.4   699 – Lowell Observatory-LONEOS MPS 210014
2007 05 08.32990 14 26 45.27 -23 55 05.7   699 – Lowell Observatory-LONEOS MPS 210014
2007 05 11.60872 14 23 17.62 -23 39 54.3 18.3 V E12 – Siding Spring Survey MPS 210014
2007 05 11.62068 14 23 16.83 -23 39 50.4 18.5 V E12 – Siding Spring Survey MPS 210014
2007 05 11.63271 14 23 16.00 -23 39 46.9 18.5 V E12 – Siding Spring Survey MPS 210014
2007 05 11.64470 14 23 15.21 -23 39 42.7 18.2 V E12 – Siding Spring Survey MPS 210014
2007 05 16.53550 14 18 17.02 -23 15 16.0 18.2 V E12 – Siding Spring Survey MPS 210014
2007 05 16.54354 14 18 16.48 -23 15 14.4 18.3 V E12 – Siding Spring Survey MPS 210014
2007 05 16.55140 14 18 16.05 -23 15 11.7 18.6 V E12 – Siding Spring Survey MPS 210014
2007 05 16.55922 14 18 15.58 -23 15 08.4 18.5 V E12 – Siding Spring Survey MPS 210014
2007 05 25.57042 14 10 09.66 -22 26 53.5 19.0 V E12 – Siding Spring Survey MPS 210565
2007 05 25.57084 14 10 09.62 -22 26 52.7 18.6 V E12 – Siding Spring Survey MPS 210565
2007 05 25.57861 14 10 09.22 -22 26 49.9 18.5 V E12 – Siding Spring Survey MPS 210565
2007 05 25.57904 14 10 09.22 -22 26 50.4 17.8 V E12 – Siding Spring Survey MPS 210565
2007 05 25.58688 14 10 08.79 -22 26 48.0 18.4 V E12 – Siding Spring Survey MPS 210565
2007 05 25.58729 14 10 08.79 -22 26 47.6 18.8 V E12 – Siding Spring Survey MPS 210565
